IBE075B LEMD-LPPT

Flight info

Callsign IBE075B
Flight time 1h 0m
Altitude 33000
Route CCS DCT ELVAR DCT UPULO
Aircraft A359/H-SDE2E3GHIJ3J4J5LM1ORWXY/LB1D1

Departure

Time 2026-05-07 17:25
Airport Adolfo Suárez Madrid–Barajas Airport (LEMD)

Arrival

Time 2026-05-07 18:25
Airport Lisbon Humberto Delgado Airport (LPPT)
Time Latitude Longitude Altitude Speed Heading
2026-05-07 17:08 40.49767 -3.56355 1970 ft 0 kts 270°
2026-05-07 17:18 40.49767 -3.56356 1970 ft 0 kts 270°
2026-05-07 17:18 40.49767 -3.56368 1971 ft 3 kts 270°
2026-05-07 17:19 40.49762 -3.56412 1974 ft 6 kts 243°
2026-05-07 17:19 40.49720 -3.56452 1977 ft 8 kts 195°
2026-05-07 17:19 40.49645 -3.56452 1973 ft 13 kts 179°
2026-05-07 17:19 40.49564 -3.56407 1977 ft 13 kts 114°
2026-05-07 17:20 40.49535 -3.56280 1972 ft 16 kts 131°
2026-05-07 17:20 40.49434 -3.56246 1968 ft 15 kts 181°
2026-05-07 17:20 40.49322 -3.56246 1968 ft 17 kts 180°
2026-05-07 17:20 40.49193 -3.56245 1968 ft 20 kts 179°
2026-05-07 17:21 40.49048 -3.56246 1968 ft 22 kts 180°
2026-05-07 17:21 40.48896 -3.56256 1968 ft 20 kts 207°
2026-05-07 17:21 40.48863 -3.56414 1973 ft 18 kts 269°
2026-05-07 17:21 40.48862 -3.56583 1977 ft 18 kts 269°
2026-05-07 17:22 40.48861 -3.56755 1981 ft 19 kts 269°
2026-05-07 17:22 40.48860 -3.56936 1984 ft 20 kts 269°
2026-05-07 17:22 40.48859 -3.57123 1988 ft 21 kts 269°
2026-05-07 17:22 40.48850 -3.57295 1994 ft 15 kts 245°
2026-05-07 17:23 40.48766 -3.57331 1992 ft 12 kts 184°
2026-05-07 17:23 40.48678 -3.57339 1997 ft 11 kts 187°
2026-05-07 17:23 40.48621 -3.57379 2001 ft 9 kts 226°
2026-05-07 17:23 40.48568 -3.57467 2000 ft 15 kts 235°
2026-05-07 17:24 40.48482 -3.57552 2001 ft 16 kts 182°
2026-05-07 17:24 40.48388 -3.57496 2002 ft 10 kts 142°
2026-05-07 17:24 40.48379 -3.57487 2001 ft 0 kts 142°
2026-05-07 17:24 40.48357 -3.57464 2003 ft 25 kts 142°
2026-05-07 17:25 40.48024 -3.57122 2007 ft 94 kts 142°
2026-05-07 17:25 40.47339 -3.56427 1995 ft 154 kts 142°
2026-05-07 17:25 40.46376 -3.55450 2405 ft 170 kts 140°
2026-05-07 17:25 40.45485 -3.54565 3296 ft 161 kts 143°
2026-05-07 17:26 40.44555 -3.53671 3940 ft 169 kts 144°
2026-05-07 17:26 40.43581 -3.52729 4348 ft 187 kts 143°
2026-05-07 17:26 40.42485 -3.51609 4652 ft 212 kts 142°
2026-05-07 17:26 40.41267 -3.50357 5138 ft 228 kts 142°
2026-05-07 17:27 40.39928 -3.49146 5765 ft 243 kts 153°
2026-05-07 17:27 40.38303 -3.48354 6467 ft 254 kts 164°
2026-05-07 17:27 40.36574 -3.47757 7326 ft 259 kts 166°
2026-05-07 17:27 40.34835 -3.47198 8250 ft 262 kts 167°
2026-05-07 17:28 40.33048 -3.46633 9229 ft 266 kts 167°
2026-05-07 17:28 40.31236 -3.46064 10174 ft 270 kts 167°
2026-05-07 17:28 40.29383 -3.45485 11069 ft 274 kts 167°
2026-05-07 17:28 40.27517 -3.44903 11997 ft 278 kts 167°
2026-05-07 17:29 40.25620 -3.44312 12911 ft 282 kts 167°
2026-05-07 17:29 40.23689 -3.43810 13808 ft 285 kts 177°
2026-05-07 17:29 40.21727 -3.44041 14580 ft 287 kts 199°
2026-05-07 17:29 40.19968 -3.45278 15326 ft 292 kts 222°
2026-05-07 17:30 40.18774 -3.47430 15769 ft 306 kts 250°
2026-05-07 17:30 40.18121 -3.50168 16158 ft 324 kts 256°
2026-05-07 17:30 40.17536 -3.53097 16514 ft 342 kts 257°
2026-05-07 17:30 40.16918 -3.56182 16885 ft 358 kts 256°
2026-05-07 17:31 40.16260 -3.59386 17385 ft 369 kts 256°
2026-05-07 17:31 40.15579 -3.62649 18122 ft 374 kts 256°
2026-05-07 17:31 40.14889 -3.65942 18818 ft 378 kts 256°
2026-05-07 17:31 40.14194 -3.69243 19524 ft 382 kts 256°
2026-05-07 17:32 40.13486 -3.72607 20252 ft 385 kts 256°
2026-05-07 17:32 40.12770 -3.75998 20986 ft 389 kts 256°
2026-05-07 17:32 40.12049 -3.79404 21709 ft 392 kts 256°
2026-05-07 17:32 40.11566 -3.81690 22181 ft 394 kts 256°
2026-05-07 17:33 40.10581 -3.86333 23122 ft 399 kts 256°
2026-05-07 17:33 40.09835 -3.89846 23672 ft 404 kts 257°
2026-05-07 17:33 40.09083 -3.93385 23935 ft 405 kts 257°
2026-05-07 17:33 40.08323 -3.96938 24391 ft 408 kts 257°
2026-05-07 17:34 40.07557 -4.00514 25071 ft 408 kts 257°
2026-05-07 17:34 40.06794 -4.04080 25747 ft 409 kts 257°
2026-05-07 17:34 40.06026 -4.07666 26380 ft 411 kts 257°
2026-05-07 17:34 40.05263 -4.11225 26995 ft 412 kts 257°
2026-05-07 17:35 40.04487 -4.14836 27615 ft 414 kts 258°
2026-05-07 17:35 40.03707 -4.18462 28218 ft 416 kts 258°
2026-05-07 17:35 40.02920 -4.22112 28808 ft 418 kts 258°
2026-05-07 17:35 40.02128 -4.25776 29393 ft 421 kts 258°
2026-05-07 17:36 40.01332 -4.29459 29927 ft 423 kts 258°
2026-05-07 17:36 40.00530 -4.33156 30402 ft 425 kts 258°
2026-05-07 17:36 39.99722 -4.36880 30817 ft 428 kts 258°
2026-05-07 17:36 39.98905 -4.40637 31233 ft 430 kts 258°
2026-05-07 17:37 39.98086 -4.44392 31649 ft 432 kts 258°
2026-05-07 17:37 39.97262 -4.48165 32063 ft 433 kts 258°
2026-05-07 17:37 39.96433 -4.51958 32436 ft 436 kts 258°
2026-05-07 17:37 39.95601 -4.55757 32781 ft 438 kts 258°
2026-05-07 17:38 39.94763 -4.59578 32882 ft 437 kts 258°
2026-05-07 17:38 39.93928 -4.63369 32881 ft 434 kts 258°
2026-05-07 17:38 39.92272 -4.70876 32877 ft 434 kts 257°
2026-05-07 17:39 39.90596 -4.78450 32879 ft 434 kts 257°
2026-05-07 17:39 39.88918 -4.86010 32874 ft 434 kts 257°
2026-05-07 17:40 39.87518 -4.92292 32877 ft 434 kts 257°
2026-05-07 17:40 39.85556 -5.01072 32871 ft 434 kts 257°
2026-05-07 17:41 39.84138 -5.07395 32871 ft 434 kts 257°
2026-05-07 17:41 39.82452 -5.14892 32872 ft 435 kts 257°
2026-05-07 17:42 39.80737 -5.22489 32868 ft 435 kts 257°
2026-05-07 17:42 39.79040 -5.29984 32865 ft 435 kts 257°
2026-05-07 17:43 39.77323 -5.37539 32867 ft 435 kts 257°
2026-05-07 17:43 39.75606 -5.45076 32865 ft 435 kts 257°
2026-05-07 17:44 39.73879 -5.52628 32865 ft 435 kts 257°
2026-05-07 17:44 39.72161 -5.60112 32859 ft 435 kts 257°
2026-05-07 17:45 39.70433 -5.67612 32860 ft 435 kts 257°
2026-05-07 17:45 39.68694 -5.75139 32858 ft 435 kts 257°
2026-05-07 17:46 39.66949 -5.82666 32856 ft 435 kts 257°
2026-05-07 17:46 39.65200 -5.90190 32854 ft 434 kts 256°
2026-05-07 17:47 39.63458 -5.97654 32852 ft 434 kts 256°
2026-05-07 17:47 39.61704 -6.05146 32854 ft 434 kts 256°
2026-05-07 17:48 39.59956 -6.12588 32849 ft 433 kts 256°
2026-05-07 17:48 39.58194 -6.20070 32852 ft 433 kts 256°
2026-05-07 17:49 39.56432 -6.27520 32846 ft 432 kts 256°
2026-05-07 17:49 39.54668 -6.34964 32845 ft 432 kts 256°
2026-05-07 17:50 39.52878 -6.42375 32838 ft 432 kts 254°
2026-05-07 17:50 39.50504 -6.49585 32846 ft 434 kts 249°
2026-05-07 17:51 39.47870 -6.56563 32843 ft 434 kts 248°
2026-05-07 17:51 39.45220 -6.63595 32841 ft 433 kts 248°
2026-05-07 17:52 39.42526 -6.70574 32839 ft 433 kts 247°
2026-05-07 17:52 39.39808 -6.77493 32836 ft 433 kts 247°
2026-05-07 17:53 39.37061 -6.84437 32831 ft 433 kts 247°
2026-05-07 17:53 39.34300 -6.91396 32649 ft 441 kts 246°
2026-05-07 17:54 39.32893 -6.94933 32378 ft 444 kts 246°
2026-05-07 17:54 39.31471 -6.98499 32127 ft 446 kts 246°
2026-05-07 17:54 39.30046 -7.02067 31867 ft 447 kts 246°
2026-05-07 17:54 39.28617 -7.05641 31619 ft 449 kts 246°
2026-05-07 17:55 39.27183 -7.09223 31357 ft 450 kts 246°
2026-05-07 17:55 39.25738 -7.12826 31111 ft 452 kts 246°
2026-05-07 17:55 39.24291 -7.16431 30861 ft 453 kts 245°
2026-05-07 17:55 39.22841 -7.20044 30574 ft 453 kts 245°
2026-05-07 17:56 39.21413 -7.23598 29815 ft 450 kts 245°
2026-05-07 17:56 39.19971 -7.27174 29132 ft 445 kts 245°
2026-05-07 17:56 39.18552 -7.30690 28561 ft 438 kts 245°
2026-05-07 17:56 39.17151 -7.34162 28005 ft 432 kts 245°
2026-05-07 17:57 39.15773 -7.37578 27439 ft 426 kts 245°
2026-05-07 17:57 39.14865 -7.39828 27074 ft 423 kts 244°
2026-05-07 17:57 39.13065 -7.44277 26541 ft 412 kts 244°
2026-05-07 17:57 39.11776 -7.47455 26387 ft 398 kts 244°
2026-05-07 17:58 39.10517 -7.50565 26270 ft 385 kts 244°
2026-05-07 17:58 39.09296 -7.53579 26130 ft 373 kts 244°
2026-05-07 17:58 39.08112 -7.56491 25980 ft 362 kts 244°
2026-05-07 17:58 39.06958 -7.59323 25749 ft 354 kts 244°
2026-05-07 17:59 39.05819 -7.62116 25303 ft 352 kts 244°
2026-05-07 17:59 39.04684 -7.64898 24897 ft 350 kts 244°
2026-05-07 17:59 39.03562 -7.67703 24598 ft 360 kts 245°
2026-05-07 17:59 39.02451 -7.70659 24528 ft 370 kts 246°
2026-05-07 18:00 39.01357 -7.73595 24104 ft 367 kts 245°
2026-05-07 18:00 39.00239 -7.76561 23603 ft 368 kts 245°
2026-05-07 18:00 38.99120 -7.79510 23167 ft 367 kts 245°
2026-05-07 18:00 38.98003 -7.82442 22898 ft 361 kts 245°
2026-05-07 18:01 38.96911 -7.85300 22658 ft 351 kts 245°
2026-05-07 18:01 38.95846 -7.88075 22432 ft 341 kts 245°
2026-05-07 18:01 38.94804 -7.90787 22139 ft 334 kts 245°
2026-05-07 18:01 38.93792 -7.93417 21763 ft 330 kts 245°
2026-05-07 18:02 38.91790 -7.98616 21145 ft 319 kts 245°
2026-05-07 18:02 38.90779 -8.01150 20801 ft 318 kts 241°
2026-05-07 18:02 38.89503 -8.03459 20464 ft 318 kts 233°
2026-05-07 18:03 38.88094 -8.05655 20042 ft 317 kts 232°
2026-05-07 18:03 38.86683 -8.07817 19718 ft 315 kts 232°
2026-05-07 18:03 38.85272 -8.09982 19405 ft 315 kts 232°
2026-05-07 18:03 38.83884 -8.12118 19123 ft 314 kts 232°
2026-05-07 18:04 38.82485 -8.14273 18818 ft 314 kts 231°
2026-05-07 18:04 38.81091 -8.16420 18529 ft 313 kts 231°
2026-05-07 18:04 38.79702 -8.18559 18237 ft 312 kts 231°
2026-05-07 18:04 38.78321 -8.20681 18019 ft 304 kts 231°
2026-05-07 18:05 38.76987 -8.22728 17834 ft 295 kts 231°
2026-05-07 18:05 38.75690 -8.24714 17639 ft 286 kts 231°
2026-05-07 18:05 38.74426 -8.26648 17397 ft 280 kts 231°
2026-05-07 18:05 38.73206 -8.28515 16972 ft 274 kts 231°
2026-05-07 18:06 38.71995 -8.30365 16592 ft 268 kts 230°
2026-05-07 18:06 38.70802 -8.32189 16316 ft 266 kts 230°
2026-05-07 18:06 38.69603 -8.34023 16065 ft 265 kts 230°
2026-05-07 18:06 38.68432 -8.35815 15817 ft 265 kts 230°
2026-05-07 18:07 38.67237 -8.37643 15564 ft 264 kts 230°
2026-05-07 18:07 38.66076 -8.39420 15315 ft 263 kts 230°
2026-05-07 18:07 38.64901 -8.41216 15079 ft 264 kts 230°
2026-05-07 18:07 38.63730 -8.43007 14825 ft 262 kts 230°
2026-05-07 18:08 38.62564 -8.44787 14577 ft 260 kts 230°
2026-05-07 18:08 38.61406 -8.46555 14386 ft 260 kts 230°
2026-05-07 18:08 38.60246 -8.48327 14170 ft 259 kts 230°
2026-05-07 18:08 38.59088 -8.50093 13932 ft 258 kts 230°
2026-05-07 18:09 38.57928 -8.51860 13701 ft 258 kts 230°
2026-05-07 18:09 38.56791 -8.53593 13435 ft 257 kts 229°
2026-05-07 18:09 38.55643 -8.55341 13168 ft 256 kts 229°
2026-05-07 18:09 38.54497 -8.57084 12908 ft 256 kts 229°
2026-05-07 18:10 38.53337 -8.58808 12619 ft 254 kts 228°
2026-05-07 18:10 38.52174 -8.60506 12362 ft 253 kts 228°
2026-05-07 18:10 38.51019 -8.62194 12126 ft 252 kts 228°
2026-05-07 18:10 38.49868 -8.63878 11892 ft 251 kts 228°
2026-05-07 18:11 38.48720 -8.65561 11653 ft 250 kts 228°
2026-05-07 18:11 38.47962 -8.66671 11494 ft 250 kts 228°
2026-05-07 18:11 38.46438 -8.68904 11183 ft 249 kts 228°
2026-05-07 18:11 38.45312 -8.70528 10948 ft 247 kts 225°
2026-05-07 18:12 38.43888 -8.71739 10754 ft 246 kts 201°
2026-05-07 18:12 38.42303 -8.72507 10567 ft 243 kts 198°
2026-05-07 18:12 38.40631 -8.72818 10376 ft 243 kts 183°
2026-05-07 18:12 38.38940 -8.72803 10182 ft 242 kts 180°
2026-05-07 18:13 38.37259 -8.72753 9991 ft 241 kts 182°
2026-05-07 18:13 38.35620 -8.73109 9947 ft 240 kts 200°
2026-05-07 18:13 38.34177 -8.74159 9944 ft 241 kts 221°
2026-05-07 18:13 38.33187 -8.75855 9827 ft 243 kts 242°
2026-05-07 18:14 38.32582 -8.77891 9823 ft 249 kts 255°
2026-05-07 18:14 38.32365 -8.80093 9702 ft 251 kts 265°
2026-05-07 18:14 38.32321 -8.82322 9566 ft 253 kts 268°
2026-05-07 18:14 38.32322 -8.84569 9432 ft 253 kts 268°
2026-05-07 18:15 38.32340 -8.86798 9300 ft 252 kts 269°
2026-05-07 18:15 38.32615 -8.89018 9189 ft 256 kts 290°
2026-05-07 18:15 38.33425 -8.91036 9055 ft 257 kts 299°
2026-05-07 18:15 38.34338 -8.92970 8924 ft 258 kts 300°
2026-05-07 18:16 38.35277 -8.94923 8783 ft 258 kts 300°
2026-05-07 18:16 38.36218 -8.96874 8612 ft 258 kts 300°
2026-05-07 18:16 38.37159 -8.98822 8423 ft 257 kts 300°
2026-05-07 18:16 38.38100 -9.00770 8245 ft 256 kts 300°
2026-05-07 18:17 38.39021 -9.02673 8082 ft 255 kts 300°
2026-05-07 18:17 38.39948 -9.04593 7880 ft 253 kts 300°
2026-05-07 18:17 38.40868 -9.06499 7716 ft 252 kts 300°
2026-05-07 18:17 38.41790 -9.08406 7544 ft 251 kts 300°
2026-05-07 18:18 38.42705 -9.10298 7359 ft 250 kts 300°
2026-05-07 18:18 38.43637 -9.12183 7143 ft 250 kts 303°
2026-05-07 18:18 38.44783 -9.13840 6891 ft 250 kts 317°
2026-05-07 18:18 38.46210 -9.15095 6652 ft 250 kts 329°
2026-05-07 18:19 38.47741 -9.16148 6409 ft 250 kts 332°
2026-05-07 18:19 38.49287 -9.17153 6156 ft 248 kts 332°
2026-05-07 18:19 38.50800 -9.18124 5897 ft 244 kts 333°
2026-05-07 18:19 38.52331 -9.19097 5631 ft 241 kts 332°
2026-05-07 18:20 38.53804 -9.20036 5378 ft 237 kts 332°
2026-05-07 18:20 38.55265 -9.20968 5109 ft 230 kts 332°
2026-05-07 18:20 38.56653 -9.21854 4872 ft 215 kts 332°
2026-05-07 18:20 38.57949 -9.22684 4595 ft 202 kts 333°
2026-05-07 18:21 38.59258 -9.23148 4313 ft 193 kts
2026-05-07 18:21 38.60535 -9.22901 4081 ft 182 kts 18°
2026-05-07 18:21 38.61675 -9.22315 4028 ft 175 kts 21°
2026-05-07 18:21 38.62814 -9.21735 4032 ft 174 kts 20°
2026-05-07 18:22 38.63929 -9.21136 4018 ft 173 kts 21°
2026-05-07 18:22 38.64290 -9.20939 4007 ft 173 kts 20°
2026-05-07 18:22 38.66165 -9.19883 3561 ft 180 kts 21°
2026-05-07 18:22 38.67325 -9.19245 3176 ft 182 kts 20°
2026-05-07 18:23 38.68480 -9.18624 2723 ft 173 kts 19°
2026-05-07 18:23 38.69544 -9.18082 2368 ft 160 kts 19°
2026-05-07 18:23 38.70548 -9.17553 1991 ft 150 kts 16°
2026-05-07 18:23 38.71516 -9.17059 1613 ft 151 kts 17°
2026-05-07 18:24 38.72479 -9.16595 1355 ft 145 kts 17°
2026-05-07 18:24 38.73396 -9.16116 1109 ft 140 kts 19°
2026-05-07 18:24 38.74275 -9.15630 872 ft 134 kts 20°
2026-05-07 18:24 38.75124 -9.15178 656 ft 131 kts 19°
2026-05-07 18:25 38.75983 -9.14736 531 ft 137 kts 19°
2026-05-07 18:25 38.76854 -9.14260 372 ft 134 kts 20°
2026-05-07 18:25 38.77637 -9.13859 371 ft 106 kts 21°
2026-05-07 18:25 38.78052 -9.13635 375 ft 20 kts 23°
2026-05-07 18:26 38.78184 -9.13562 374 ft 23 kts 24°
2026-05-07 18:26 38.78224 -9.13496 376 ft 5 kts 98°
2026-05-07 18:26 38.78156 -9.13454 371 ft 11 kts 167°